[[{"header":{"parameterUnit":"m.s-1","parameterCategory":1,"la1":30.2991,"la2":30.254,"lo1":-89.0895,"lo2":-89.0444,"dy":0.0017,"dx":0.0017,"nx":28,"ny":28,"refTime":"2023-03-17T21:00:00:Z","depth":0,"parameterNumber":2,"parameterNumberName":"U-component_of_WINDS"},"data":[0,0,0,0,0,0,0,0,0,0,0,0,0,0,0,0,0,0,0,0,0,0,0,0,0,0,0,0,0,0,0,0,0,0,0,0,0,0,0,0,0,0,0,0,0,0,0,0,0,0,0,0,0,0,0,0,0,0,-0.2303,-0.2303,0,-0.2329,-0.2329,-0.2329,-0.2314,-0.2313,-0.2313,-0.2312,-0.234,-0.2341,-0.2343,0,0,0,0,0,0,0,0,0,0,0,0,0,-0.2242,-0.2244,-0.2303,-0.2303,-0.2304,-0.2328,-0.2329,-0.2329,-0.2314,-0.2313,-0.2312,-0.2312,-0.2339,-0.2341,-0.2343,0,0,0,0,0,0,0,0,0,0,0,0,0,-0.2268,-0.2244,-0.2303,-0.2299,-0.2299,-0.2328,-0.2329,-0.2329,-0.2314,-0.2313,-0.2312,-0.2311,-0.2339,-0.2341,-0.2343,-0.2378,0,0,-0.2349,-0.235,0,0,0,0,0,0,0,0,-0.2267,-0.2271,-0.2299,-0.23,-0.2299,-0.2317,-0.2318,-0.2346,-0.2315,-0.2309,-0.2312,-0.2311,-0.2333,-0.2336,-0.2343,-0.2379,-0.238,-0.235,-0.2351,-0.2352,-0.2352,0,0,0,0,0,0,0,-0.2265,-0.227,-0.2313,-0.23,-0.23,-0.2296,-0.2299,-0.2323,-0.2327,-0.2309,-0.2308,-0.2311,-0.2333,-0.2341,-0.2343,-0.2381,-0.235,-0.2351,-0.2353,-0.2354,-0.2447,-0.2448,0,0,0,0,0,0,-0.2264,-0.2268,-0.2312,-0.2314,-0.228,-0.2298,-0.2301,-0.2312,-0.2326,-0.2328,-0.2312,-0.231,-0.2338,-0.2341,-0.2344,-0.2386,-0.2352,-0.2354,-0.2355,-0.2445,-0.2447,-0.2448,0,0,0,0,0,0,-0.2262,-0.2268,-0.2311,-0.2291,-0.2296,-0.2301,-0.2313,-0.2314,-0.2321,-0.2329,-0.2329,-0.2319,-0.2337,-0.2341,-0.2369,-0.2387,-0.2355,-0.2357,-0.2444,-0.2446,-0.2447,-0.247,0,0,0,0,0,0,-0.2261,-0.2267,-0.2281,-0.2291,-0.2297,-0.2336,-0.2314,-0.2315,-0.2325,-0.2323,-0.2336,-0.2337,-0.2337,-0.2366,-0.2372,-0.2389,-0.2358,-0.2442,-0.2445,-0.2447,-0.2468,-0.2473,-0.2477,0,0,0,0,0,-0.2258,-0.2287,-0.2281,-0.2287,-0.2314,-0.2337,-0.2341,-0.2339,-0.2326,-0.234,-0.2344,-0.2337,-0.2384,-0.2369,-0.2375,-0.2394,-0.2441,-0.2444,-0.2447,-0.2466,-0.2472,-0.2477,0,0,0,0,0,0,-0.2279,-0.2288,-0.2282,-0.2315,-0.2325,-0.2334,-0.2352,-0.2345,-0.236,-0.2358,-0.2355,-0.2358,-0.2388,-0.2393,-0.2377,-0.2428,-0.2411,-0.2415,-0.2424,-0.2429,-0.2433,-0.2432,-0.236,0,0,0,0,0,-0.2287,-0.2305,-0.2312,-0.2339,-0.2345,-0.2347,-0.2357,-0.2355,-0.2366,-0.2371,-0.2377,-0.2389,-0.2406,-0.2418,-0.2434,-0.2468,-0.2471,-0.2484,-0.2488,-0.2492,-0.2496,-0.2514,-0.252,-0.2457,-0.2457,-0.2457,0,0,-0.2304,-0.2311,-0.2323,-0.2344,-0.2352,-0.237,-0.2351,-0.2372,-0.2386,-0.2374,-0.2401,-0.2406,-0.2418,-0.245,-0.2464,-0.2455,-0.2513,-0.2495,-0.2498,-0.25,-0.2517,-0.2523,-0.2529,-0.2459,-0.2458,-0.2458,0,0,-0.2346,-0.2352,-0.2376,-0.2384,-0.2396,-0.2397,-0.2403,-0.2413,-0.2415,-0.2442,-0.2433,-0.245,-0.248,-0.2489,-0.2498,-0.254,-0.2534,-0.2546,-0.2569,-0.2587,-0.2592,-0.2596,-0.2612,-0.2617,-0.2549,-0.2549,-0.2549,0,-0.2366,-0.2393,-0.239,-0.2411,-0.242,-0.2409,-0.2433,-0.2441,-0.2458,-0.2465,-0.2454,-0.2491,-0.2499,-0.2532,-0.2542,-0.255,-0.2556,-0.2545,-0.2591,-0.2595,-0.26,-0.2614,-0.262,-0.2551,-0.2551,-0.255,-0.255,0,-0.2418,-0.2437,-0.2455,-0.247,-0.2481,-0.2504,-0.2504,-0.2515,-0.2512,-0.2514,-0.2541,-0.2549,-0.2567,-0.2574,-0.2571,-0.2607,-0.2601,-0.2591,-0.2574,-0.2607,-0.2621,-0.2627,-0.2553,-0.2552,-0.2552,-0.2551,0,0,-0.2475,-0.2486,-0.2493,-0.25,-0.2511,-0.2526,-0.2548,-0.2564,-0.2574,-0.2586,-0.2604,-0.2629,-0.2619,-0.2629,-0.2627,-0.2642,-0.2676,-0.263,-0.263,-0.2639,-0.2716,-0.2724,-0.2731,-0.2671,-0.2672,-0.2672,-0.2715,0,-0.2517,-0.2555,-0.2551,-0.2587,-0.2604,-0.2593,-0.2612,-0.2621,-0.2623,-0.2638,-0.2641,-0.2659,-0.2644,-0.265,-0.2665,-0.2669,-0.2691,-0.2665,-0.2688,-0.2689,-0.2687,-0.2738,-0.2747,-0.2787,-0.272,-0.2721,-0.2722,0,-0.2572,-0.2584,-0.2622,-0.263,-0.2637,-0.2654,-0.2668,-0.2683,-0.2693,-0.2693,-0.2703,-0.2698,-0.2719,-0.27,-0.273,-0.2713,-0.2722,-0.2725,-0.2726,-0.2729,-0.2708,-0.2743,-0.2799,-0.2805,-0.273,-0.273,-0.2729,0,-0.261,-0.2636,-0.2662,-0.2668,-0.2678,-0.269,-0.2694,-0.2703,-0.2713,-0.2725,-0.2732,-0.2747,-0.2755,-0.2767,-0.2766,-0.2752,-0.2796,-0.2777,-0.2798,-0.2798,-0.2809,-0.2809,-0.2868,-0.2813,-0.2813,-0.2813,-0.2813,0,-0.2659,-0.2682,-0.2679,-0.2695,-0.2721,-0.2716,-0.2742,-0.2745,-0.2753,-0.2769,-0.276,-0.2776,-0.2772,-0.2788,-0.2787,-0.2812,-0.2816,-0.2817,-0.2817,-0.2818,-0.2818,-0.2825,-0.2823,-0.2814,-0.2814,-0.2814,-0.2813,0,-0.2707,-0.2706,-0.2733,-0.2739,-0.2741,-0.276,-0.2765,-0.2781,-0.2781,-0.2802,-0.2806,-0.2808,-0.2825,-0.2825,-0.2845,-0.2844,-0.2875,-0.2871,-0.2872,-0.2872,-0.2892,-0.2891,-0.2959,-0.2968,-0.2907,-0.2907,-0.2908,0,-0.2738,-0.2756,-0.2764,-0.2774,-0.2779,-0.2795,-0.2805,-0.2801,-0.2811,-0.2823,-0.2836,-0.2853,-0.2866,-0.2895,-0.2898,-0.2913,-0.291,-0.2933,-0.2912,-0.2913,-0.2911,-0.291,-0.2912,-0.2937,-0.2938,-0.2938,-0.2939,0,-0.2795,-0.2793,-0.2807,-0.2821,-0.2832,-0.2843,-0.2853,-0.2861,-0.2858,-0.287,-0.2887,-0.2898,-0.2917,-0.2934,-0.2948,-0.2953,-0.2946,-0.2945,-0.2951,-0.2953,-0.2953,-0.2954,-0.2884,-0.2944,-0.2943,-0.2943,-0.2943,-0.2943,-0.2836,-0.2851,-0.2859,-0.2874,-0.2881,-0.289,-0.2904,-0.2906,-0.292,-0.2936,-0.2932,-0.2952,-0.296,-0.2978,-0.2984,-0.3,-0.2992,-0.3,-0.3002,-0.3005,-0.3007,-0.295,-0.3002,-0.3002,-0.3002,-0.3002,-0.3002,0,-0.2893,-0.2896,-0.2911,-0.2924,-0.2937,-0.2927,-0.2937,-0.2948,-0.2965,-0.2973,-0.2986,-0.3006,-0.3021,-0.3025,-0.304,-0.3051,-0.3048,-0.3056,-0.3055,-0.3057,-0.3013,-0.3007,-0.3058,-0.3058,-0.3058,-0.3058,-0.3058,-0.3058,-0.2924,-0.2948,-0.2947,-0.2975,-0.2979,-0.2998,-0.3004,-0.3012,-0.3018,-0.3041,-0.3054,-0.3055,-0.3061,-0.3076,-0.309,-0.3091,-0.3097,-0.3106,-0.3105,-0.3065,-0.306,-0.3054,-0.3049,-0.3107,-0.3107,-0.3148,-0.3148,-0.3148]},{"header":{"parameterUnit":"m.s-1","parameterCategory":1,"la1":30.2991,"la2":30.254,"lo1":-89.0895,"lo2":-89.0444,"dy":0.0017,"dx":0.0017,"nx":28,"ny":28,"refTime":"2023-03-17T21:00:00:Z","depth":0,"parameterNumber":3,"parameterNumberName":"V-component_of_WINDS"},"data":[0,0,0,0,0,0,0,0,0,0,0,0,0,0,0,0,0,0,0,0,0,0,0,0,0,0,0,0,0,0,0,0,0,0,0,0,0,0,0,0,0,0,0,0,0,0,0,0,0,0,0,0,0,0,0,0,0,0,-8.5409,-8.541,0,-8.5507,-8.5508,-8.5509,-8.5426,-8.5423,-8.5419,-8.5416,-8.551,-8.5515,-8.5521,0,0,0,0,0,0,0,0,0,0,0,0,0,-8.5146,-8.5151,-8.5409,-8.541,-8.5411,-8.5506,-8.5508,-8.5509,-8.5427,-8.5422,-8.5418,-8.5414,-8.5508,-8.5514,-8.5521,0,0,0,0,0,0,0,0,0,0,0,0,0,-8.5253,-8.5153,-8.5409,-8.5382,-8.538,-8.5506,-8.5508,-8.5509,-8.5427,-8.5422,-8.5417,-8.5412,-8.5506,-8.5514,-8.5522,-8.5678,0,0,-8.5548,-8.5552,0,0,0,0,0,0,0,0,-8.5247,-8.5263,-8.5385,-8.5384,-8.5383,-8.5449,-8.5449,-8.5566,-8.5429,-8.5409,-8.5416,-8.541,-8.5493,-8.5502,-8.5532,-8.5682,-8.5686,-8.5549,-8.5554,-8.5558,-8.556,0,0,0,0,0,0,0,-8.524,-8.5258,-8.5447,-8.5386,-8.5385,-8.5363,-8.5373,-8.5471,-8.5479,-8.5411,-8.5405,-8.5418,-8.5492,-8.5524,-8.5533,-8.5687,-8.5549,-8.5556,-8.5562,-8.5565,-8.5971,-8.5976,0,0,0,0,0,0,-8.5236,-8.5253,-8.5444,-8.545,-8.5301,-8.5372,-8.5383,-8.5433,-8.5477,-8.5479,-8.5422,-8.5414,-8.5512,-8.5523,-8.5536,-8.5722,-8.5558,-8.5566,-8.5571,-8.5965,-8.5972,-8.5978,0,0,0,0,0,0,-8.5231,-8.5254,-8.544,-8.535,-8.5372,-8.5382,-8.5439,-8.5437,-8.5469,-8.5486,-8.5487,-8.5454,-8.5508,-8.5524,-8.5644,-8.5724,-8.557,-8.5577,-8.5959,-8.5967,-8.5975,-8.6095,0,0,0,0,0,0,-8.5224,-8.5253,-8.5313,-8.5352,-8.5377,-8.5548,-8.5444,-8.5443,-8.5485,-8.5475,-8.5516,-8.5518,-8.5505,-8.5632,-8.5652,-8.5733,-8.5584,-8.5951,-8.5963,-8.5973,-8.6084,-8.6107,-8.6126,0,0,0,0,0,-8.5214,-8.5341,-8.5316,-8.534,-8.5453,-8.5553,-8.5567,-8.5552,-8.5492,-8.5552,-8.5563,-8.5517,-8.5712,-8.5645,-8.5667,-8.5752,-8.5946,-8.5959,-8.5972,-8.6075,-8.6102,-8.6126,0,0,0,0,0,0,-8.5308,-8.5346,-8.5319,-8.5462,-8.5506,-8.5539,-8.5614,-8.5581,-8.564,-8.5628,-8.5604,-8.5615,-8.5741,-8.5758,-8.5682,-8.5905,-8.5819,-8.5837,-8.589,-8.5916,-8.5937,-8.593,-8.5591,0,0,0,0,0,-8.5346,-8.5426,-8.5453,-8.5577,-8.5601,-8.5604,-8.5647,-8.5632,-8.5674,-8.5691,-8.5711,-8.5753,-8.5823,-8.587,-8.5936,-8.6086,-8.6094,-8.6155,-8.6176,-8.6193,-8.6209,-8.629,-8.6318,-8.602,-8.602,-8.602,0,0,-8.5424,-8.5454,-8.5506,-8.5597,-8.5628,-8.571,-8.562,-8.5709,-8.577,-8.5704,-8.5819,-8.5835,-8.588,-8.6016,-8.6076,-8.6034,-8.6293,-8.621,-8.6223,-8.623,-8.6307,-8.6335,-8.636,-8.6029,-8.6027,-8.6026,0,0,-8.5609,-8.564,-8.5747,-8.5782,-8.5832,-8.5833,-8.5859,-8.5899,-8.5908,-8.6023,-8.5976,-8.6046,-8.6168,-8.6203,-8.6236,-8.6436,-8.6396,-8.6458,-8.6568,-8.6647,-8.6671,-8.6692,-8.6764,-8.679,-8.6474,-8.6474,-8.6474,0,-8.5699,-8.5823,-8.5806,-8.5901,-8.5942,-8.5889,-8.5997,-8.603,-8.6099,-8.6128,-8.608,-8.6233,-8.626,-8.6403,-8.6452,-8.6481,-8.6509,-8.6453,-8.6669,-8.669,-8.6709,-8.6777,-8.6804,-8.6481,-8.648,-8.648,-8.6479,0,-8.5931,-8.6018,-8.6098,-8.6169,-8.6219,-8.632,-8.6317,-8.637,-8.635,-8.6357,-8.6475,-8.6505,-8.6577,-8.661,-8.659,-8.6751,-8.6723,-8.6673,-8.6586,-8.6745,-8.6809,-8.6835,-8.6492,-8.6489,-8.6487,-8.6485,0,0,-8.6177,-8.6239,-8.6269,-8.6301,-8.6353,-8.6419,-8.6517,-8.659,-8.6636,-8.6684,-8.6766,-8.6871,-8.6826,-8.6864,-8.6848,-8.6917,-8.7075,-8.6858,-8.6859,-8.6898,-8.7255,-8.7293,-8.7324,-8.7049,-8.7053,-8.7057,-8.7251,0,-8.6365,-8.6539,-8.6527,-8.669,-8.677,-8.6721,-8.6806,-8.6847,-8.6856,-8.6923,-8.6931,-8.7008,-8.6941,-8.6964,-8.7031,-8.7042,-8.7146,-8.7027,-8.7123,-8.7127,-8.7115,-8.7357,-8.7398,-8.758,-8.7276,-8.728,-8.7283,0,-8.6607,-8.6668,-8.684,-8.6882,-8.6914,-8.6992,-8.7058,-8.7124,-8.7168,-8.717,-8.7214,-8.7187,-8.7284,-8.7196,-8.733,-8.7249,-8.7287,-8.7299,-8.7305,-8.7314,-8.7215,-8.7373,-8.7637,-8.7665,-8.7322,-8.7319,-8.7316,0,-8.6771,-8.6895,-8.7014,-8.7043,-8.7094,-8.715,-8.7174,-8.7214,-8.7259,-8.7316,-8.7345,-8.7412,-8.7448,-8.75,-8.7491,-8.7427,-8.7628,-8.7538,-8.7632,-8.7632,-8.7676,-8.7674,-8.7951,-8.77,-8.77,-8.7699,-8.7699,0,-8.6982,-8.7089,-8.7089,-8.7163,-8.7281,-8.7266,-8.7383,-8.74,-8.7436,-8.7511,-8.7471,-8.7542,-8.7526,-8.7595,-8.7589,-8.7701,-8.7718,-8.7721,-8.7718,-8.7725,-8.7725,-8.775,-8.7738,-8.7707,-8.7705,-8.7704,-8.7702,0,-8.7185,-8.7189,-8.7316,-8.7356,-8.7368,-8.7454,-8.7486,-8.7555,-8.7561,-8.7656,-8.7678,-8.7687,-8.7767,-8.7763,-8.7853,-8.7849,-8.7988,-8.7969,-8.7974,-8.797,-8.8064,-8.8056,-8.8368,-8.8408,-8.8131,-8.8133,-8.8135,0,-8.732,-8.7402,-8.7451,-8.75,-8.7528,-8.7607,-8.7653,-8.7641,-8.7691,-8.7749,-8.7811,-8.7888,-8.7949,-8.8079,-8.8093,-8.8162,-8.8145,-8.825,-8.8155,-8.816,-8.8148,-8.8144,-8.8152,-8.8268,-8.8272,-8.8274,-8.8276,0,-8.756,-8.7559,-8.7629,-8.7701,-8.7758,-8.7813,-8.7863,-8.7905,-8.7898,-8.7955,-8.8039,-8.8087,-8.818,-8.8257,-8.8323,-8.8345,-8.831,-8.8306,-8.8331,-8.834,-8.834,-8.8342,-8.8026,-8.8299,-8.8297,-8.8295,-8.8294,-8.8293,-8.7734,-8.7805,-8.7852,-8.7931,-8.7968,-8.8017,-8.8084,-8.81,-8.817,-8.8247,-8.8235,-8.8328,-8.837,-8.8456,-8.8485,-8.8556,-8.8519,-8.8555,-8.8565,-8.8574,-8.8585,-8.8328,-8.8568,-8.8567,-8.8567,-8.8566,-8.8566,0,-8.7972,-8.8001,-8.8074,-8.8148,-8.821,-8.8174,-8.8228,-8.8282,-8.8366,-8.841,-8.8472,-8.8567,-8.8642,-8.8662,-8.8734,-8.8788,-8.8773,-8.8807,-8.8803,-8.8809,-8.8614,-8.8586,-8.8817,-8.8817,-8.8817,-8.8817,-8.8817,-8.8817,-8.8104,-8.8223,-8.8228,-8.8365,-8.8391,-8.8484,-8.8518,-8.8563,-8.8598,-8.8708,-8.8771,-8.8784,-8.8818,-8.8893,-8.8959,-8.8963,-8.8992,-8.9032,-8.903,-8.8847,-8.8822,-8.8798,-8.8771,-8.9038,-8.9039,-8.9218,-8.922,-8.9221]}]]